Voltar ao catálogo

SATCOM 3R

AtivoComunicaçõesGEO
NORAD 12967·PAYLOAD·🇺🇸 United States

Lançado Nov 20, 1981 de Cape Canaveral Space Force Station

Loading…

TLE

AtualizadoSource: Space-Track

Época: Sep 14, 2026, 13:13 UTC

1 12967U 81114A   26257.55126147 -.00000125  00000-0  00000-0 0  9992
2 12967  11.9891 331.2867 0005019 298.9997  85.8590  1.00140558128969

Acompanhe SATCOM 3R em tempo real com AllMySat

Download on the App Store